| time (UTC) | temp C | wind direction | speed KPH | gust KPH | rain 1hr cm | rain 24hr cm | rain mn cm | humidity % | barometer mb |
| 20260507043040 | 18 | 0.0 | 3.2 | 0.00 | 0.00 | 0.00 | 57 | 993.0 | |
| 20260507040040 | 18 | 315 | 1.6 | 6.4 | 0.00 | 0.00 | 0.00 | 58 | 992.7 |
| 20260507033100 | 18 | 0 | 4.8 | 12.9 | 0.00 | 0.00 | 0.00 | 57 | 992.4 |
| 20260507030100 | 18 | 0 | 8.0 | 29.0 | 0.00 | 0.00 | 0.00 | 53 | 991.9 |
| 20260507023041 | 16 | 0 | 4.8 | 17.7 | 0.00 | 0.00 | 0.00 | 59 | 992.0 |
| 20260507020043 | 14 | 0 | 3.2 | 12.9 | 0.00 | 0.00 | 0.00 | 62 | 991.2 |
| 20260507013143 | 14 | 293 | 3.2 | 12.9 | 0.00 | 0.00 | 0.00 | 62 | 991.5 |
| 20260507010042 | 13 | 0 | 6.4 | 20.9 | 0.00 | 0.00 | 0.00 | 65 | 991.8 |
| 20260507003042 | 15 | 0 | 6.4 | 20.9 | 0.00 | 0.00 | 0.00 | 57 | 991.3 |
| 20260507000041 | 15 | 0 | 4.8 | 14.5 | 0.00 | 0.00 | 0.00 | 57 | 991.3 |
| 20260506233142 | 16 | 0 | 8.0 | 17.7 | 0.00 | 0.00 | 0.00 | 56 | 991.2 |
| 20260506230041 | 16 | 0 | 9.7 | 20.9 | 0.00 | 0.00 | 0.00 | 55 | 991.3 |
| 20260506223041 | 17 | 0 | 9.7 | 17.7 | 0.00 | 0.00 | 0.00 | 52 | 991.2 |
| 20260506220041 | 17 | 0 | 8.0 | 19.3 | 0.00 | 0.00 | 0.00 | 50 | 991.1 |
| 20260506213041 | 18 | 0 | 9.7 | 24.1 | 0.00 | 0.00 | 0.00 | 47 | 991.2 |
| 20260506210042 | 20 | 0 | 9.7 | 22.5 | 0.00 | 0.00 | 0.00 | 44 | 991.1 |
| 20260506203040 | 20 | 0 | 6.4 | 14.5 | 0.00 | 0.00 | 0.00 | 44 | 991.0 |
| 20260506200040 | 18 | 158 | 1.6 | 6.4 | 0.00 | 0.00 | 0.00 | 47 | 991.1 |
| 20260506193042 | 19 | 180 | 1.6 | 6.4 | 0.00 | 0.00 | 0.00 | 45 | 991.0 |
| 20260506190042 | 20 | 158 | 3.2 | 8.0 | 0.00 | 0.00 | 0.00 | 44 | 990.9 |
| 20260506183042 | 20 | 135 | 1.6 | 6.4 | 0.00 | 0.00 | 0.00 | 42 | 990.9 |
| 20260506180042 | 20 | 135 | 1.6 | 4.8 | 0.00 | 0.00 | 0.00 | 42 | 990.9 |
| 20260506173101 | 21 | 90 | 1.6 | 4.8 | 0.00 | 0.00 | 0.00 | 42 | 990.8 |
| 20260506170042 | 21 | 0.0 | 3.2 | 0.00 | 0.00 | 0.00 | 42 | 990.6 | |
| 20260506163101 | 22 | 0.0 | 3.2 | 0.00 | 0.00 | 0.00 | 40 | 990.4 | |
| 20260506160042 | 23 | 293 | 3.2 | 8.0 | 0.00 | 0.00 | 0.00 | 34 | 990.4 |
| 20260506153041 | 24 | 315 | 1.6 | 6.4 | 0.00 | 0.00 | 0.00 | 36 | 990.2 |
| 20260506143101 | 26 | 0 | 3.2 | 12.9 | 0.00 | 0.00 | 0.00 | 31 | 990.2 |
| 20260506140042 | 26 | 315 | 3.2 | 17.7 | 0.00 | 0.00 | 0.00 | 32 | 990.2 |
| 20260506133041 | 25 | 0 | 1.6 | 8.0 | 0.00 | 0.00 | 0.00 | 32 | 990.4 |
| 20260506130041 | 25 | 293 | 3.2 | 6.4 | 0.00 | 0.00 | 0.00 | 34 | 990.7 |
| 20260506123041 | 26 | 0 | 3.2 | 12.9 | 0.00 | 0.00 | 0.00 | 32 | 990.8 |
| 20260506120041 | 26 | 0 | 4.8 | 14.5 | 0.00 | 0.00 | 0.00 | 31 | 990.9 |
| 20260506113041 | 26 | 0 | 4.8 | 16.1 | 0.00 | 0.00 | 0.00 | 35 | 991.2 |
| 20260506103041 | 26 | 315 | 3.2 | 12.9 | 0.00 | 0.00 | 0.00 | 30 | 991.5 |
| 20260506100041 | 25 | 315 | 3.2 | 12.9 | 0.00 | 0.00 | 0.00 | 35 | 991.7 |
| 20260506093041 | 25 | 203 | 3.2 | 14.5 | 0.00 | 0.00 | 0.00 | 36 | 991.8 |
| 20260506090041 | 24 | 315 | 3.2 | 12.9 | 0.00 | 0.00 | 0.00 | 34 | 991.9 |
| 20260506083040 | 25 | 315 | 3.2 | 11.3 | 0.00 | 0.00 | 0.00 | 32 | 992.2 |
| 20260506073100 | 24 | 0 | 4.8 | 17.7 | 0.00 | 0.00 | 0.00 | 38 | 992.3 |